Location: Winthrop
(48.4780°N, 120.1850°W)
Time: 08:35:27
(UTC-08:00)

Tiangong - Visible Passes

Search period start: 03 December 2022 00:00
Search period end: 13 December 2022 00:00
Orbit: 386 x 394 km, 41.5° (Epoch: 02 December)

Date Brightness Start Highest point End Pass type
(mag) Time Alt. Az. Time Alt. Az. Time Alt. Az.
03 Dec 0.3 17:03:19 10° SSW 17:05:16 15° SSE 17:07:14 10° SE visible
03 Dec 0.3 18:39:01 10° SW 18:40:27 19° SSW 18:40:27 19° SSW visible
04 Dec -0.2 17:41:13 10° SW 17:43:45 22° S 17:45:11 16° SE visible
05 Dec 0.1 16:43:29 10° SW 16:45:51 19° SSE 16:48:13 10° ESE visible
05 Dec -0.1 18:19:41 10° WSW 18:22:12 22° S 18:22:12 22° S visible
06 Dec -0.1 17:21:41 10° SW 17:24:17 23° S 17:26:53 10° SE visible
06 Dec 1.0 18:58:38 10° WSW 18:59:14 12° SW 18:59:14 12° SW visible
07 Dec 0.2 18:00:19 10° WSW 18:02:40 19° SSW 18:03:59 15° SSE visible
08 Dec 0.1 17:02:06 10° WSW 17:04:38 22° S 17:07:10 10° SE visible
08 Dec 0.9 18:39:51 10° SW 18:40:53 11° SSW 18:41:07 11° SSW visible
09 Dec 0.7 17:40:58 10° SW 17:42:53 15° SSW 17:44:47 10° SSE visible
10 Dec 0.6 16:42:29 10° WSW 16:44:47 18° SSW 16:47:05 10° SSE visible
11 Dec 1.2 17:22:10 10° SW 17:22:51 11° SSW 17:23:32 10° SSW visible
